Palm Springs, CA

8:34 AM PDT on July 26, 2017 (GMT -0700)
Palm Springs International

Weather History for KPSP - July, 2006

Change the Weather History Date:

Tuesday, July 18, 2006

  Actual Average Record
Temperature  
Mean Temperature 98 °F 93 °F  
Max Temperature 109 °F 108 °F 120 °F (1947)
Min Temperature 86 °F 78 °F 59 °F (1940)
Degree Days  
Heating Degree Days 0 0  
Month to date heating degree days 0  
Since 1 June heating degree days 0  
Since 1 July heating degree days 0  
Cooling Degree Days 32 28  
Month to date cooling degree days 484  
Year to date cooling degree days 1890  
Since 1 June cooling degree days 1131  
Growing Degree Days 48 (Base 50)    
Moisture  
Dew Point 61 °F    
Average Humidity 32    
Maximum Humidity 51    
Minimum Humidity 18    
Precipitation  
Precipitation 0.00 in 0.01 in 0.33 in (2015)
Month to date precipitation 0.05  
Year to date precipitation 2.99  
Sea Level Pressure  
Sea Level Pressure 29.79 in    
Wind  
Wind Speed 6 mph (NNE)    
Max Wind Speed 17 mph    
Max Gust Speed 18 mph    
Visibility 10 miles    
Events      
T = Trace of Precipitation, MM = Missing Value Source: NWS Daily Summary

Daily Weather History Graph

Daily Weather History Graph

Search for Another Location

Airport or City:

Trip Planner

Search our weather history database for the weather conditions in past years. The results will help you decide how hot, cold, wet, or windy it might be!

Date:

Astronomy

Jul. 18, 2006 Rise Set
Actual Time 5:48 AM PDT 7:56 PM PDT
Civil Twilight 5:19 AM PDT 8:24 PM PDT
Nautical Twilight 4:45 AM PDT 8:58 PM PDT
Astronomical Twilight 4:08 AM PDT 9:35 PM PDT
Moon 12:17 AM PDT (7/18) 2:15 PM PDT (7/18)
Length of Visible Light 15h 04m
Length of Day
14h 07m
Last Quarter, 39% of the Moon is Illuminated
Jul 18
Last Quarter
Jul 24
New
Aug 2
First Quarter
Aug 9
Full
Aug 15
Last Quarter

Hourly Weather History & Observations

Time (PDT) Temp. Heat Index Dew Point Humidity Pressure Visibility Wind Dir Wind Speed Gust Speed Precip Events Conditions
12:53 AM 88.0 °F 90.3 °F 66.0 °F 48% 29.83 in 10.0 mi Calm Calm - N/A   Clear
1:53 AM 88.0 °F 90.3 °F 66.0 °F 48% 29.83 in 10.0 mi Calm Calm - N/A   Clear
2:53 AM 87.1 °F 89.9 °F 66.9 °F 51% 29.83 in 10.0 mi NE 4.6 mph - N/A   Clear
3:53 AM 88.0 °F 88.4 °F 62.1 °F 42% 29.83 in 10.0 mi NNW 11.5 mph - N/A   Clear
4:53 AM 86.0 °F 88.2 °F 66.0 °F 51% 29.83 in 10.0 mi NW 3.5 mph - N/A   Clear
5:53 AM 88.0 °F 88.4 °F 62.1 °F 42% 29.84 in 10.0 mi NNW 9.2 mph - N/A   Mostly Cloudy
6:53 AM 88.0 °F 88.4 °F 62.1 °F 42% 29.84 in 10.0 mi Calm Calm - N/A   Clear
7:53 AM 91.9 °F 92.5 °F 62.1 °F 37% 29.85 in 10.0 mi WNW 4.6 mph - N/A   Partly Cloudy
8:53 AM 98.1 °F 97.7 °F 59.0 °F 27% 29.85 in 10.0 mi Calm Calm - N/A   Clear
10:53 AM 102.0 °F 102.7 °F 60.1 °F 25% 29.85 in 10.0 mi ESE 10.4 mph - N/A   Partly Cloudy
11:53 AM 102.9 °F 104.8 °F 62.1 °F 26% 29.84 in 10.0 mi SE 10.4 mph - N/A   Partly Cloudy
12:53 PM 106.0 °F 107.1 °F 60.1 °F 22% 29.82 in 10.0 mi East 12.7 mph - N/A   Scattered Clouds
1:53 PM 106.0 °F 107.1 °F 60.1 °F 22% 29.79 in 10.0 mi SSE 8.1 mph - N/A   Scattered Clouds
2:53 PM 108.0 °F 108.0 °F 57.9 °F 19% 29.76 in 10.0 mi SE 13.8 mph 18.4 mph N/A   Partly Cloudy
3:53 PM 109.9 °F 110.2 °F 57.0 °F 18% 29.73 in 10.0 mi ESE 12.7 mph - N/A   Partly Cloudy
4:53 PM 109.0 °F 108.9 °F 57.0 °F 18% 29.71 in 10.0 mi ESE 9.2 mph - N/A   Clear
6:53 PM 107.1 °F 108.1 °F 59.0 °F 21% 29.69 in 10.0 mi East 8.1 mph - N/A   Clear
7:53 PM 102.9 °F 104.2 °F 61.0 °F 25% 29.70 in 10.0 mi NW 15.0 mph - N/A   Clear
8:53 PM 100.0 °F 100.7 °F 60.1 °F 27% 29.73 in 10.0 mi NNW 17.3 mph - N/A   Clear
9:53 PM 97.0 °F 97.4 °F 61.0 °F 30% 29.75 in 10.0 mi NW 13.8 mph - N/A   Clear
10:53 PM 95.0 °F 95.2 °F 61.0 °F 32% 29.75 in 10.0 mi NW 10.4 mph - N/A   Clear
11:53 PM 93.9 °F 94.8 °F 62.1 °F 35% 29.77 in 10.0 mi WNW 3.5 mph - N/A   Clear